Time,TemperatureF,DewpointF,PressureIn,WindDirection,WindDirectionDegrees,WindSpeedMPH,WindSpeedGustMPH,Humidity,HourlyPrecipIn,Conditions,Clouds,dailyrainin,SolarRadiationWatts/m^2,SoftwareType,DateUTC
2013-06-08 00:02:00,55.0,54.0,-100.00,North,358,0.0,2.0,96,0.00,,,0.00,0.000000,,2013-06-08 05:02:00,
2013-06-08 00:12:00,54.0,53.0,-100.00,NNW,328,0.0,0.0,97,0.00,,,0.00,0.000000,,2013-06-08 05:12:00,
2013-06-08 00:32:00,54.0,53.0,-100.00,NNW,328,0.0,0.0,97,0.00,,,0.00,0.000000,,2013-06-08 05:32:00,
2013-06-08 00:42:00,54.0,53.0,-100.00,NNW,328,0.0,0.0,97,0.00,,,0.00,0.000000,,2013-06-08 05:42:00,
2013-06-08 00:53:00,54.0,53.0,-100.00,NNW,328,0.0,0.0,97,0.00,,,0.00,0.000000,,2013-06-08 05:53:00,
2013-06-08 01:02:00,54.0,53.0,-100.00,NNW,328,0.0,0.0,97,0.00,,,0.00,0.000000,,2013-06-08 06:02:00,
2013-06-08 01:12:00,54.0,53.0,-100.00,ENE,68,0.0,6.0,97,0.00,,,0.00,0.000000,,2013-06-08 06:12:00,
2013-06-08 01:32:00,54.0,53.0,-100.00,ENE,68,0.0,6.0,97,0.00,,,0.00,0.000000,,2013-06-08 06:32:00,
2013-06-08 01:42:00,54.0,53.0,-100.00,ENE,68,0.0,6.0,97,0.00,,,0.00,0.000000,,2013-06-08 06:42:00,
2013-06-08 01:53:00,54.0,53.0,-100.00,ENE,68,0.0,6.0,97,0.00,,,0.00,0.000000,,2013-06-08 06:53:00,
2013-06-08 02:02:00,54.0,53.0,-100.00,ENE,68,0.0,6.0,97,0.00,,,0.00,0.000000,,2013-06-08 07:02:00,
2013-06-08 02:12:00,53.0,52.0,-100.00,East,99,0.0,3.0,97,0.00,,,0.00,0.000000,,2013-06-08 07:12:00,
2013-06-08 02:32:00,53.0,52.0,-100.00,East,99,0.0,3.0,97,0.00,,,0.00,0.000000,,2013-06-08 07:32:00,
2013-06-08 02:42:00,53.0,52.0,-100.00,East,99,0.0,3.0,97,0.00,,,0.00,0.000000,,2013-06-08 07:42:00,
2013-06-08 02:52:00,53.0,52.0,-100.00,East,99,0.0,3.0,97,0.00,,,0.00,0.000000,,2013-06-08 07:52:00,
2013-06-08 03:02:00,53.0,52.0,-100.00,East,99,0.0,3.0,97,0.00,,,0.00,0.000000,,2013-06-08 08:02:00,
2013-06-08 03:12:00,51.0,50.0,-100.00,SW,226,0.0,2.0,97,0.00,,,0.00,0.000000,,2013-06-08 08:12:00,
2013-06-08 03:32:00,51.0,50.0,-100.00,SW,226,0.0,2.0,97,0.00,,,0.00,0.000000,,2013-06-08 08:32:00,
2013-06-08 03:42:00,51.0,50.0,-100.00,SW,226,0.0,2.0,97,0.00,,,0.00,0.000000,,2013-06-08 08:42:00,
2013-06-08 03:53:00,51.0,50.0,-100.00,SW,226,0.0,2.0,97,0.00,,,0.00,0.000000,,2013-06-08 08:53:00,
2013-06-08 04:02:00,51.0,50.0,-100.00,SW,226,0.0,2.0,97,0.00,,,0.00,0.000000,,2013-06-08 09:02:00,
2013-06-08 04:12:00,51.0,50.0,-100.00,SW,227,0.0,0.0,97,0.00,,,0.00,0.000000,,2013-06-08 09:12:00,
2013-06-08 04:33:00,51.0,50.0,-100.00,SW,227,0.0,0.0,97,0.00,,,0.00,0.000000,,2013-06-08 09:33:00,
2013-06-08 04:43:00,51.0,50.0,-100.00,SW,227,0.0,0.0,97,0.00,,,0.00,0.000000,,2013-06-08 09:43:00,
2013-06-08 04:53:00,51.0,50.0,-100.00,SW,227,0.0,0.0,97,0.00,,,0.00,0.000000,,2013-06-08 09:53:00,
2013-06-08 05:03:00,51.0,50.0,-100.00,SW,227,0.0,0.0,97,0.00,,,0.00,0.000000,,2013-06-08 10:03:00,
2013-06-08 05:12:00,51.0,50.0,-100.00,SSE,147,0.0,1.0,97,0.00,,,0.00,0.000000,,2013-06-08 10:12:00,
2013-06-08 05:33:00,51.0,50.0,-100.00,SSE,147,0.0,1.0,97,0.00,,,0.00,0.000000,,2013-06-08 10:33:00,
2013-06-08 05:43:00,51.0,50.0,-100.00,SSE,147,0.0,1.0,97,0.00,,,0.00,0.000000,,2013-06-08 10:43:00,
2013-06-08 05:53:00,51.0,50.0,-100.00,SSE,147,0.0,1.0,97,0.00,,,0.00,0.000000,,2013-06-08 10:53:00,
2013-06-08 06:02:00,51.0,50.0,-100.00,SSE,147,0.0,1.0,97,0.00,,,0.00,0.000000,,2013-06-08 11:02:00,
2013-06-08 06:12:00,53.0,52.0,-100.00,West,265,0.0,1.0,97,0.00,,,0.00,11.000000,,2013-06-08 11:12:00,
2013-06-08 06:32:00,53.0,52.0,-100.00,West,265,0.0,1.0,97,0.00,,,0.00,11.000000,,2013-06-08 11:32:00,
2013-06-08 06:42:00,53.0,52.0,-100.00,West,265,0.0,1.0,97,0.00,,,0.00,11.000000,,2013-06-08 11:42:00,
2013-06-08 06:52:00,53.0,52.0,-100.00,West,265,0.0,1.0,97,0.00,,,0.00,11.000000,,2013-06-08 11:52:00,
2013-06-08 07:02:00,53.0,52.0,-100.00,West,265,0.0,1.0,97,0.00,,,0.00,11.000000,,2013-06-08 12:02:00,
2013-06-08 07:12:00,55.0,54.0,-100.00,East,92,0.0,0.0,97,0.00,,,0.00,60.000000,,2013-06-08 12:12:00,
2013-06-08 07:33:00,55.0,54.0,-100.00,East,92,0.0,0.0,97,0.00,,,0.00,60.000000,,2013-06-08 12:33:00,
2013-06-08 07:42:00,55.0,54.0,-100.00,East,92,0.0,0.0,97,0.00,,,0.00,60.000000,,2013-06-08 12:42:00,
2013-06-08 07:52:00,55.0,54.0,-100.00,East,92,0.0,0.0,97,0.00,,,0.00,60.000000,,2013-06-08 12:52:00,
2013-06-08 08:02:00,55.0,54.0,-100.00,East,92,0.0,0.0,97,0.00,,,0.00,60.000000,,2013-06-08 13:02:00,
2013-06-08 08:12:00,57.0,55.0,-100.00,East,92,0.0,0.0,93,0.00,,,0.00,67.000000,,2013-06-08 13:12:00,
2013-06-08 08:32:00,57.0,55.0,-100.00,East,92,0.0,0.0,93,0.00,,,0.00,67.000000,,2013-06-08 13:32:00,
2013-06-08 08:42:00,57.0,55.0,-100.00,East,92,0.0,0.0,93,0.00,,,0.00,67.000000,,2013-06-08 13:42:00,
2013-06-08 08:52:00,57.0,55.0,-100.00,East,92,0.0,0.0,93,0.00,,,0.00,67.000000,,2013-06-08 13:52:00,
2013-06-08 09:02:00,57.0,55.0,-100.00,East,92,0.0,0.0,93,0.00,,,0.00,67.000000,,2013-06-08 14:02:00,
2013-06-08 09:12:00,58.0,56.0,-100.00,NNE,15,0.0,2.0,93,0.02,,,0.02,88.000000,,2013-06-08 14:12:00,
2013-06-08 09:32:00,58.0,56.0,-100.00,NNE,15,0.0,2.0,93,0.02,,,0.02,88.000000,,2013-06-08 14:32:00,
2013-06-08 09:42:00,58.0,56.0,-100.00,NNE,15,0.0,2.0,93,0.02,,,0.02,88.000000,,2013-06-08 14:42:00,
2013-06-08 09:52:00,58.0,56.0,-100.00,NNE,15,0.0,2.0,93,0.02,,,0.02,88.000000,,2013-06-08 14:52:00,
2013-06-08 10:02:00,58.0,56.0,-100.00,NNE,15,0.0,2.0,93,0.02,,,0.02,88.000000,,2013-06-08 15:02:00,
2013-06-08 10:12:00,58.0,56.0,-100.00,ENE,64,2.0,4.0,93,0.00,,,0.02,130.000000,,2013-06-08 15:12:00,
2013-06-08 10:33:00,58.0,56.0,-100.00,ENE,64,2.0,4.0,93,0.00,,,0.02,130.000000,,2013-06-08 15:33:00,
2013-06-08 10:43:00,58.0,56.0,-100.00,ENE,64,2.0,4.0,93,0.00,,,0.02,130.000000,,2013-06-08 15:43:00,
2013-06-08 10:53:00,58.0,56.0,-100.00,ENE,64,2.0,4.0,93,0.00,,,0.02,130.000000,,2013-06-08 15:53:00,
2013-06-08 11:03:00,58.0,56.0,-100.00,ENE,64,2.0,4.0,93,0.00,,,0.02,130.000000,,2013-06-08 16:03:00,
2013-06-08 11:12:00,59.0,57.0,-100.00,East,94,0.0,3.0,94,0.02,,,0.04,115.000000,,2013-06-08 16:12:00,
2013-06-08 11:33:00,59.0,57.0,-100.00,East,94,0.0,3.0,94,0.02,,,0.04,115.000000,,2013-06-08 16:33:00,
2013-06-08 11:42:00,59.0,57.0,-100.00,East,94,0.0,3.0,94,0.02,,,0.04,115.000000,,2013-06-08 16:42:00,
2013-06-08 11:53:00,59.0,57.0,-100.00,East,94,0.0,3.0,94,0.02,,,0.04,115.000000,,2013-06-08 16:53:00,
2013-06-08 12:02:00,59.0,57.0,-100.00,East,94,0.0,3.0,94,0.02,,,0.04,115.000000,,2013-06-08 17:02:00,
2013-06-08 12:12:00,59.0,56.0,-100.00,NNE,32,0.0,3.0,90,0.02,,,0.06,103.000000,,2013-06-08 17:12:00,
2013-06-08 12:32:00,59.0,56.0,-100.00,NNE,32,0.0,3.0,90,0.02,,,0.06,103.000000,,2013-06-08 17:32:00,
2013-06-08 12:42:00,59.0,56.0,-100.00,NNE,32,0.0,3.0,90,0.02,,,0.06,103.000000,,2013-06-08 17:42:00,
2013-06-08 12:52:00,59.0,56.0,-100.00,NNE,32,0.0,3.0,90,0.02,,,0.06,103.000000,,2013-06-08 17:52:00,
2013-06-08 13:02:00,59.0,56.0,-100.00,NNE,32,0.0,3.0,90,0.02,,,0.06,103.000000,,2013-06-08 18:02:00,
2013-06-08 13:12:00,60.0,55.0,-100.00,North,360,1.0,4.0,83,0.00,,,0.06,139.000000,,2013-06-08 18:12:00,
2013-06-08 13:32:00,60.0,55.0,-100.00,North,360,1.0,4.0,83,0.00,,,0.06,139.000000,,2013-06-08 18:32:00,
2013-06-08 13:42:00,60.0,55.0,-100.00,North,360,1.0,4.0,83,0.00,,,0.06,139.000000,,2013-06-08 18:42:00,
2013-06-08 13:52:00,60.0,55.0,-100.00,North,360,1.0,4.0,83,0.00,,,0.06,139.000000,,2013-06-08 18:52:00,
2013-06-08 14:03:00,60.0,55.0,-100.00,North,360,1.0,4.0,83,0.00,,,0.06,139.000000,,2013-06-08 19:03:00,
2013-06-08 14:12:00,63.0,53.0,-100.00,ENE,69,3.0,7.0,69,0.00,,,0.06,296.000000,,2013-06-08 19:12:00,
2013-06-08 14:32:00,63.0,53.0,-100.00,ENE,69,3.0,7.0,69,0.00,,,0.06,296.000000,,2013-06-08 19:32:00,
2013-06-08 14:42:00,63.0,53.0,-100.00,ENE,69,3.0,7.0,69,0.00,,,0.06,296.000000,,2013-06-08 19:42:00,
2013-06-08 14:53:00,63.0,53.0,-100.00,ENE,69,3.0,7.0,69,0.00,,,0.06,296.000000,,2013-06-08 19:53:00,
2013-06-08 15:02:00,63.0,53.0,-100.00,ENE,69,3.0,7.0,69,0.00,,,0.06,296.000000,,2013-06-08 20:02:00,
2013-06-08 15:12:00,66.0,51.0,-100.00,ENE,70,3.0,8.0,58,0.00,,,0.06,496.000000,,2013-06-08 20:12:00,
2013-06-08 15:32:00,66.0,51.0,-100.00,ENE,70,3.0,8.0,58,0.00,,,0.06,496.000000,,2013-06-08 20:32:00,
2013-06-08 15:42:00,66.0,51.0,-100.00,ENE,70,3.0,8.0,58,0.00,,,0.06,496.000000,,2013-06-08 20:42:00,
2013-06-08 15:53:00,66.0,51.0,-100.00,ENE,70,3.0,8.0,58,0.00,,,0.06,496.000000,,2013-06-08 20:53:00,
2013-06-08 16:02:00,66.0,51.0,-100.00,ENE,70,3.0,8.0,58,0.00,,,0.06,496.000000,,2013-06-08 21:02:00,
2013-06-08 16:12:00,69.0,47.0,-100.00,SE,125,2.0,8.0,46,0.00,,,0.06,589.000000,,2013-06-08 21:12:00,
2013-06-08 16:33:00,69.0,47.0,-100.00,SE,125,2.0,8.0,46,0.00,,,0.06,589.000000,,2013-06-08 21:33:00,
2013-06-08 16:43:00,69.0,47.0,-100.00,SE,125,2.0,8.0,46,0.00,,,0.06,589.000000,,2013-06-08 21:43:00,
2013-06-08 16:53:00,69.0,47.0,-100.00,SE,125,2.0,8.0,46,0.00,,,0.06,589.000000,,2013-06-08 21:53:00,
2013-06-08 17:02:00,69.0,47.0,-100.00,SE,125,2.0,8.0,46,0.00,,,0.06,589.000000,,2013-06-08 22:02:00,
2013-06-08 17:12:00,69.0,49.0,-100.00,SE,126,2.0,6.0,49,0.00,,,0.06,313.000000,,2013-06-08 22:12:00,
2013-06-08 17:33:00,69.0,49.0,-100.00,SE,126,2.0,6.0,49,0.00,,,0.06,313.000000,,2013-06-08 22:33:00,
2013-06-08 17:43:00,69.0,49.0,-100.00,SE,126,2.0,6.0,49,0.00,,,0.06,313.000000,,2013-06-08 22:43:00,
2013-06-08 17:52:00,69.0,49.0,-100.00,SE,126,2.0,6.0,49,0.00,,,0.06,313.000000,,2013-06-08 22:52:00,
2013-06-08 18:02:00,69.0,49.0,-100.00,SE,126,2.0,6.0,49,0.00,,,0.06,313.000000,,2013-06-08 23:02:00,
2013-06-08 18:12:00,68.0,49.0,-100.00,East,83,3.0,6.0,51,0.00,,,0.06,228.000000,,2013-06-08 23:12:00,
2013-06-08 18:32:00,68.0,49.0,-100.00,East,83,3.0,6.0,51,0.00,,,0.06,228.000000,,2013-06-08 23:32:00,
2013-06-08 18:42:00,68.0,49.0,-100.00,East,83,3.0,6.0,51,0.00,,,0.06,228.000000,,2013-06-08 23:42:00,
2013-06-08 18:52:00,68.0,49.0,-100.00,East,83,3.0,6.0,51,0.00,,,0.06,228.000000,,2013-06-08 23:52:00,
2013-06-08 19:02:00,68.0,49.0,-100.00,East,83,3.0,6.0,51,0.00,,,0.06,228.000000,,2013-06-09 00:02:00,
2013-06-08 19:12:00,67.0,53.0,-100.00,ENE,73,2.0,6.0,61,0.00,,,0.06,162.000000,,2013-06-09 00:12:00,
2013-06-08 19:32:00,67.0,53.0,-100.00,ENE,73,2.0,6.0,61,0.00,,,0.06,162.000000,,2013-06-09 00:32:00,
2013-06-08 19:42:00,67.0,53.0,-100.00,ENE,73,2.0,6.0,61,0.00,,,0.06,162.000000,,2013-06-09 00:42:00,
2013-06-08 19:52:00,67.0,53.0,-100.00,ENE,73,2.0,6.0,61,0.00,,,0.06,162.000000,,2013-06-09 00:52:00,
2013-06-08 20:02:00,67.0,53.0,-100.00,ENE,73,2.0,6.0,61,0.00,,,0.06,162.000000,,2013-06-09 01:02:00,
2013-06-08 20:12:00,62.0,55.0,-100.00,ENE,65,1.0,4.0,78,0.01,,,0.07,57.000000,,2013-06-09 01:12:00,
2013-06-08 20:32:00,62.0,55.0,-100.00,ENE,65,1.0,4.0,78,0.01,,,0.07,57.000000,,2013-06-09 01:32:00,
2013-06-08 20:42:00,62.0,55.0,-100.00,ENE,65,1.0,4.0,78,0.01,,,0.07,57.000000,,2013-06-09 01:42:00,
2013-06-08 20:52:00,62.0,55.0,-100.00,ENE,65,1.0,4.0,78,0.01,,,0.07,57.000000,,2013-06-09 01:52:00,
2013-06-08 21:02:00,62.0,55.0,-100.00,ENE,65,1.0,4.0,78,0.01,,,0.07,57.000000,,2013-06-09 02:02:00,
2013-06-08 21:12:00,57.0,55.0,-100.00,ENE,70,0.0,2.0,92,0.00,,,0.07,6.000000,,2013-06-09 02:12:00,
2013-06-08 21:32:00,57.0,55.0,-100.00,ENE,70,0.0,2.0,92,0.00,,,0.07,6.000000,,2013-06-09 02:32:00,
2013-06-08 21:42:00,57.0,55.0,-100.00,ENE,70,0.0,2.0,92,0.00,,,0.07,6.000000,,2013-06-09 02:42:00,
2013-06-08 21:52:00,57.0,55.0,-100.00,ENE,70,0.0,2.0,92,0.00,,,0.07,6.000000,,2013-06-09 02:52:00,
2013-06-08 22:02:00,57.0,55.0,-100.00,ENE,70,0.0,2.0,92,0.00,,,0.07,6.000000,,2013-06-09 03:02:00,
2013-06-08 22:12:00,54.0,53.0,-100.00,NE,56,1.0,3.0,96,0.00,,,0.07,0.000000,,2013-06-09 03:12:00,
2013-06-08 22:33:00,54.0,53.0,-100.00,NE,56,1.0,3.0,96,0.00,,,0.07,0.000000,,2013-06-09 03:33:00,
2013-06-08 22:43:00,54.0,53.0,-100.00,NE,56,1.0,3.0,96,0.00,,,0.07,0.000000,,2013-06-09 03:43:00,
2013-06-08 22:53:00,54.0,53.0,-100.00,NE,56,1.0,3.0,96,0.00,,,0.07,0.000000,,2013-06-09 03:53:00,
2013-06-08 23:03:00,54.0,53.0,-100.00,NE,56,1.0,3.0,96,0.00,,,0.07,0.000000,,2013-06-09 04:03:00,
2013-06-08 23:12:00,53.0,52.0,-100.00,ENE,74,0.0,3.0,96,0.00,,,0.07,0.000000,,2013-06-09 04:12:00,
2013-06-08 23:33:00,53.0,52.0,-100.00,ENE,74,0.0,3.0,96,0.00,,,0.07,0.000000,,2013-06-09 04:33:00,
2013-06-08 23:43:00,53.0,52.0,-100.00,ENE,74,0.0,3.0,96,0.00,,,0.07,0.000000,,2013-06-09 04:43:00,
2013-06-08 23:53:00,53.0,52.0,-100.00,ENE,74,0.0,3.0,96,0.00,,,0.07,0.000000,,2013-06-09 04:53:00,